[[{"header":{"parameterUnit":"m.s-1","parameterCategory":1,"la1":30.2991,"la2":30.254,"lo1":-89.0895,"lo2":-89.0444,"dy":0.0017,"dx":0.0017,"nx":28,"ny":28,"refTime":"2025-12-26T09:00:00:Z","depth":0,"parameterNumber":2,"parameterNumberName":"U-component_of_WINDS"},"data":[0,0,0,0,0,0,0,0,0,0,0,0,0,0,0,0,0,0,0,0,0,0,0,0,0,0,0,0,0,0,0,0,0,0,0,0,0,0,0,0,0,0,0,0,0,0,0,0,0,0,0,0,0,0,0,0,0,0,1.2115,1.2116,0,1.2183,1.2184,1.2185,1.2195,1.2194,1.2193,1.2193,1.2266,1.2269,1.2271,0,0,0,0,0,0,0,0,0,0,0,0,0,1.1997,1.2,1.2115,1.2116,1.2117,1.2183,1.2184,1.2185,1.2195,1.2194,1.2193,1.2193,1.2266,1.2269,1.2272,0,0,0,0,0,0,0,0,0,0,0,0,0,1.2055,1.2,1.2115,1.213,1.2132,1.2183,1.2184,1.2185,1.2195,1.2194,1.2193,1.2192,1.2265,1.2268,1.2272,1.2315,0,0,1.2284,1.2285,0,0,0,0,0,0,0,0,1.2052,1.206,1.2127,1.2129,1.2131,1.2179,1.217,1.2229,1.2195,1.2171,1.2193,1.2192,1.2238,1.2244,1.2259,1.2318,1.2321,1.2284,1.2286,1.2288,1.2289,0,0,0,0,0,0,0,1.2048,1.2057,1.2142,1.2128,1.213,1.2134,1.2141,1.2181,1.2209,1.2173,1.2174,1.2182,1.2239,1.2256,1.2261,1.2322,1.2284,1.2287,1.229,1.2291,1.2421,1.2422,0,0,0,0,0,0,1.2041,1.2053,1.214,1.2144,1.2088,1.2137,1.2145,1.2165,1.2209,1.2215,1.2182,1.2182,1.225,1.2257,1.2264,1.2317,1.2288,1.2291,1.2294,1.242,1.2421,1.2422,0,0,0,0,0,0,1.2038,1.2048,1.2137,1.2099,1.2111,1.214,1.2162,1.2167,1.2183,1.2216,1.2221,1.2193,1.2249,1.2258,1.2302,1.232,1.2293,1.2297,1.2418,1.242,1.2422,1.2424,0,0,0,0,0,0,1.2035,1.2047,1.2063,1.2099,1.2113,1.2173,1.2163,1.2169,1.2189,1.2189,1.2228,1.2233,1.2249,1.2296,1.2306,1.2325,1.23,1.2417,1.2419,1.2421,1.2423,1.2426,1.2428,0,0,0,0,0,1.2031,1.2061,1.2064,1.2074,1.2132,1.2174,1.2182,1.2198,1.219,1.2207,1.2228,1.2232,1.2316,1.23,1.2311,1.2332,1.2416,1.2418,1.2421,1.2421,1.2425,1.2428,0,0,0,0,0,0,1.2027,1.2066,1.2069,1.2112,1.214,1.2175,1.2196,1.2201,1.2232,1.2231,1.2252,1.226,1.2303,1.2322,1.2304,1.2376,1.2366,1.237,1.2362,1.2366,1.2369,1.2364,1.2303,0,0,0,0,0,1.2031,1.206,1.2094,1.2129,1.2142,1.2167,1.2186,1.2196,1.2226,1.2237,1.2262,1.2292,1.2325,1.2347,1.2379,1.2425,1.2435,1.2445,1.2448,1.245,1.2454,1.2482,1.2487,1.2431,1.2431,1.2431,0,0,1.204,1.2065,1.2083,1.2129,1.2151,1.2182,1.2177,1.221,1.2233,1.2243,1.2285,1.2305,1.2339,1.2384,1.2406,1.2401,1.2472,1.2453,1.2455,1.2458,1.2485,1.249,1.2495,1.2433,1.2432,1.2432,0,0,1.2073,1.2094,1.2126,1.2148,1.2182,1.2199,1.2206,1.2242,1.2254,1.2297,1.2305,1.2335,1.2391,1.2416,1.2436,1.2479,1.2484,1.2489,1.2504,1.2531,1.2535,1.2539,1.2555,1.2561,1.2493,1.2493,1.2493,0,1.208,1.2126,1.2142,1.2175,1.2195,1.2205,1.2238,1.2259,1.2302,1.2317,1.2311,1.2383,1.2407,1.2459,1.2469,1.2485,1.2496,1.2484,1.2533,1.2537,1.2541,1.2557,1.2563,1.2493,1.2493,1.2493,1.2493,0,1.2134,1.2166,1.2188,1.2228,1.2251,1.2284,1.2307,1.2328,1.2337,1.2355,1.2399,1.2428,1.2467,1.248,1.2489,1.2534,1.253,1.2528,1.2518,1.2547,1.2562,1.2568,1.2494,1.2494,1.2494,1.2493,0,0,1.2165,1.2215,1.2222,1.2241,1.228,1.2305,1.234,1.2377,1.2396,1.2425,1.2455,1.2503,1.2502,1.2525,1.2537,1.256,1.2594,1.2556,1.2557,1.2563,1.2646,1.2647,1.2654,1.2597,1.2598,1.2599,1.2643,0,1.2203,1.2262,1.2278,1.233,1.236,1.237,1.24,1.2428,1.2446,1.2475,1.2495,1.2529,1.2525,1.2539,1.2562,1.2584,1.2611,1.2582,1.2627,1.2628,1.2618,1.2662,1.2663,1.2703,1.2649,1.265,1.2651,0,1.2254,1.2284,1.2338,1.2373,1.2387,1.2413,1.2449,1.2477,1.2509,1.2521,1.2546,1.2557,1.2594,1.2582,1.2635,1.2615,1.2635,1.2649,1.2651,1.2656,1.2641,1.2669,1.2716,1.2722,1.266,1.266,1.2659,0,1.2272,1.2327,1.2366,1.2382,1.2424,1.2443,1.2461,1.2492,1.2514,1.2546,1.2561,1.2597,1.2617,1.2646,1.2666,1.2655,1.2718,1.2707,1.273,1.2729,1.2743,1.2742,1.2794,1.2754,1.2754,1.2754,1.2754,0,1.2313,1.2346,1.2375,1.2399,1.2437,1.2456,1.2494,1.2513,1.2541,1.257,1.2581,1.2609,1.2634,1.2666,1.2682,1.2724,1.2733,1.2744,1.2749,1.2744,1.2742,1.2757,1.2755,1.2756,1.2755,1.2755,1.2755,0,1.2339,1.236,1.2404,1.2441,1.2451,1.2477,1.2509,1.2534,1.2552,1.259,1.2599,1.2629,1.2667,1.269,1.2738,1.2749,1.2796,1.2799,1.2784,1.2786,1.2808,1.2806,1.2873,1.2883,1.2835,1.2836,1.2836,0,1.2364,1.2389,1.2428,1.2448,1.2467,1.2499,1.2521,1.2542,1.2565,1.2604,1.2625,1.2663,1.2695,1.2755,1.2782,1.2819,1.2823,1.2844,1.2829,1.2824,1.2824,1.2823,1.2826,1.2846,1.2847,1.2847,1.2847,0,1.2405,1.2414,1.2445,1.248,1.2506,1.2535,1.2564,1.258,1.2605,1.2631,1.2669,1.2694,1.2743,1.2782,1.2821,1.2842,1.285,1.2852,1.2859,1.2855,1.2846,1.2852,1.2792,1.285,1.285,1.285,1.285,1.285,1.2432,1.2455,1.2487,1.2521,1.2545,1.2572,1.2597,1.2619,1.2651,1.2692,1.2702,1.2743,1.2776,1.283,1.2852,1.2885,1.2882,1.2893,1.2895,1.2898,1.2899,1.284,1.2893,1.2893,1.2893,1.2892,1.2892,0,1.2474,1.2495,1.2526,1.2566,1.2594,1.2597,1.263,1.2653,1.2688,1.2718,1.2749,1.2794,1.2832,1.2862,1.2901,1.2922,1.2926,1.2932,1.293,1.2935,1.2899,1.2889,1.2927,1.2927,1.2927,1.2927,1.2927,1.2927,1.2499,1.254,1.2553,1.2606,1.2627,1.2666,1.2685,1.271,1.2734,1.2783,1.2815,1.2833,1.2864,1.2905,1.2941,1.2949,1.2963,1.2968,1.2976,1.2942,1.2938,1.2934,1.2925,1.297,1.297,1.301,1.3011,1.3011]},{"header":{"parameterUnit":"m.s-1","parameterCategory":1,"la1":30.2991,"la2":30.254,"lo1":-89.0895,"lo2":-89.0444,"dy":0.0017,"dx":0.0017,"nx":28,"ny":28,"refTime":"2025-12-26T09:00:00:Z","depth":0,"parameterNumber":3,"parameterNumberName":"V-component_of_WINDS"},"data":[0,0,0,0,0,0,0,0,0,0,0,0,0,0,0,0,0,0,0,0,0,0,0,0,0,0,0,0,0,0,0,0,0,0,0,0,0,0,0,0,0,0,0,0,0,0,0,0,0,0,0,0,0,0,0,0,0,0,1.9856,1.9857,0,1.9863,1.9863,1.9863,1.9844,1.9844,1.9843,1.9843,1.9849,1.985,1.9851,0,0,0,0,0,0,0,0,0,0,0,0,0,1.9827,1.9828,1.9856,1.9857,1.9857,1.9863,1.9863,1.9863,1.9844,1.9844,1.9843,1.9842,1.9849,1.985,1.9851,0,0,0,0,0,0,0,0,0,0,0,0,0,1.9838,1.9828,1.9856,1.9848,1.9847,1.9863,1.9863,1.9863,1.9844,1.9844,1.9843,1.9842,1.9849,1.985,1.9851,1.9875,0,0,1.9854,1.9855,0,0,0,0,0,0,0,0,1.9837,1.9839,1.9849,1.9849,1.9848,1.9852,1.9855,1.9867,1.9845,1.9846,1.9843,1.9841,1.9851,1.9852,1.9855,1.9876,1.9876,1.9854,1.9855,1.9856,1.9856,0,0,0,0,0,0,0,1.9836,1.9838,1.9859,1.9849,1.9849,1.9844,1.9844,1.9857,1.9853,1.9845,1.9844,1.9845,1.985,1.9854,1.9855,1.9876,1.9854,1.9855,1.9856,1.9856,1.9916,1.9917,0,0,0,0,0,0,1.9837,1.9838,1.9859,1.9859,1.984,1.9845,1.9846,1.9851,1.9853,1.9852,1.9846,1.9844,1.9853,1.9854,1.9855,1.9884,1.9856,1.9857,1.9857,1.9916,1.9917,1.9918,0,0,0,0,0,0,1.9836,1.9839,1.9859,1.9848,1.985,1.9846,1.9853,1.9852,1.9856,1.9853,1.9852,1.985,1.9852,1.9854,1.987,1.9884,1.9857,1.9858,1.9914,1.9916,1.9917,1.9941,0,0,0,0,0,0,1.9835,1.9839,1.9848,1.9848,1.9851,1.9874,1.9854,1.9853,1.9858,1.9855,1.9857,1.9857,1.9851,1.9869,1.9871,1.9885,1.9859,1.9913,1.9915,1.9917,1.9939,1.9943,1.9947,0,0,0,0,0,1.9834,1.9854,1.9849,1.9851,1.9862,1.9875,1.9876,1.987,1.9859,1.9868,1.9866,1.9857,1.9882,1.9871,1.9873,1.9887,1.9912,1.9915,1.9917,1.9937,1.9942,1.9946,0,0,0,0,0,0,1.9856,1.9854,1.9848,1.9869,1.9872,1.9871,1.9883,1.9875,1.9881,1.9879,1.9871,1.9871,1.989,1.989,1.9878,1.9911,1.9895,1.9898,1.991,1.9915,1.9918,1.9918,1.986,0,0,0,0,0,1.9863,1.9873,1.9871,1.989,1.9892,1.9887,1.9892,1.9887,1.989,1.9891,1.9891,1.9894,1.9903,1.9908,1.9916,1.9939,1.9939,1.9949,1.9953,1.9956,1.9959,1.9971,1.9976,1.9925,1.9925,1.9925,0,0,1.9878,1.9878,1.9885,1.9894,1.9896,1.9906,1.9888,1.99,1.9908,1.9893,1.9909,1.9908,1.9912,1.9931,1.994,1.9932,1.9973,1.9959,1.9961,1.9963,1.9974,1.9978,1.9983,1.9926,1.9926,1.9926,0,0,1.9911,1.9912,1.9928,1.993,1.9933,1.9929,1.9933,1.9934,1.9933,1.9949,1.9937,1.9946,1.9961,1.9964,1.9967,2.0,1.9992,2.0003,2.0023,2.0034,2.0038,2.0042,2.0054,2.0059,2.0005,2.0005,2.0005,0,1.9929,1.9945,1.9937,1.9949,1.9954,1.994,1.9956,1.9958,1.9963,1.9967,1.9958,1.9976,1.9977,1.9997,2.0005,2.0008,2.0012,2.0003,2.0038,2.0042,2.0045,2.0057,2.0061,2.0007,2.0007,2.0007,2.0006,0,1.9967,1.9978,1.999,1.9996,2.0001,2.0015,2.0009,2.0016,2.0009,2.0007,2.0023,2.0024,2.0031,2.0036,2.003,2.0055,2.005,2.004,2.0024,2.0052,2.0062,2.0067,2.0009,2.0008,2.0008,2.0008,0,0,2.0014,2.0015,2.0019,2.0022,2.0024,2.0032,2.0045,2.0052,2.0058,2.0062,2.0073,2.0086,2.0076,2.008,2.0074,2.0085,2.0111,2.0073,2.0073,2.0081,2.0139,2.0147,2.0152,2.0105,2.0106,2.0106,2.0139,0,2.0047,2.007,2.0063,2.0086,2.0096,2.0083,2.0094,2.0097,2.0095,2.0103,2.01,2.0109,2.0096,2.0098,2.0108,2.0106,2.0123,2.0103,2.0115,2.0116,2.0116,2.0158,2.0166,2.0197,2.0143,2.0143,2.0144,0,2.0088,2.0094,2.0118,2.0118,2.0122,2.0133,2.0139,2.0146,2.0148,2.0146,2.015,2.0142,2.0155,2.0139,2.0156,2.0143,2.0148,2.0147,2.0148,2.015,2.0132,2.0161,2.0207,2.0212,2.015,2.015,2.0149,0,2.0121,2.0134,2.0151,2.0153,2.0153,2.0161,2.0161,2.0163,2.0167,2.0172,2.0175,2.0182,2.0186,2.0191,2.0185,2.0173,2.0204,2.0187,2.0202,2.0203,2.021,2.021,2.0258,2.0212,2.0212,2.0212,2.0211,0,2.0159,2.0174,2.0165,2.0176,2.0192,2.0184,2.02,2.0199,2.02,2.021,2.0199,2.0208,2.0199,2.0207,2.0202,2.0218,2.022,2.0218,2.0217,2.022,2.022,2.0223,2.0221,2.0213,2.0213,2.0212,2.0212,0,2.0199,2.0193,2.021,2.0209,2.0209,2.0221,2.022,2.0229,2.0226,2.0238,2.024,2.0235,2.0244,2.0239,2.0248,2.0245,2.0265,2.026,2.0264,2.0263,2.028,2.0278,2.0332,2.0339,2.0288,2.0288,2.0288,0,2.0224,2.0235,2.0235,2.024,2.0242,2.0251,2.0255,2.0247,2.0252,2.0255,2.0264,2.0272,2.0278,2.0293,2.0291,2.0298,2.0293,2.0312,2.0295,2.0297,2.0294,2.0294,2.0295,2.0315,2.0316,2.0317,2.0317,0,2.0269,2.0265,2.0272,2.0278,2.0284,2.0289,2.0292,2.0297,2.0289,2.0295,2.0305,2.0309,2.0318,2.0327,2.0332,2.0333,2.0324,2.0322,2.0326,2.033,2.0332,2.0331,2.0275,2.0321,2.0321,2.0321,2.032,2.032,2.0302,2.0312,2.0313,2.0321,2.0323,2.0326,2.0335,2.0332,2.034,2.0347,2.0341,2.0352,2.0353,2.036,2.0361,2.037,2.0362,2.0368,2.037,2.0372,2.0374,2.033,2.0371,2.037,2.037,2.037,2.037,0,2.0347,2.0347,2.0354,2.0359,2.0366,2.0356,2.0359,2.0365,2.0375,2.0377,2.0383,2.0394,2.0401,2.0399,2.0406,2.0413,2.0409,2.0415,2.0415,2.0415,2.038,2.0376,2.0418,2.0418,2.0418,2.0418,2.0418,2.0418,2.0371,2.0387,2.0383,2.04,2.0399,2.041,2.0413,2.0416,2.0417,2.0429,2.0435,2.0434,2.0434,2.044,2.0447,2.0446,2.0449,2.0457,2.0455,2.0422,2.0418,2.0413,2.0409,2.0458,2.0458,2.0489,2.049,2.049]}]]